• In Deutschland
  • Länderverzeichnis
  • Für 7 Tage
  • Wassertemperatur
  • Satellitenkarten
  • Wetterkarte
  • Widgets
  • user-avatar
    Anmelden

    Stündliche Wetter Ischgl

    Heute, 20 September, Donnerstag

    Zeit Temperatur Niederschläge Wind Luftdruck Luftfeuchtigkeit
    00:00 +5°C° 0 mm 1 m/S 579 mmHg 85%
    01:00 +5°C° 0 mm 1 m/S 579 mmHg 85%
    02:00 +5°C° 0 mm 1 m/S 579 mmHg 83%
    03:00 +5°C° 0 mm 1 m/S 579 mmHg 82%
    04:00 +5°C° 0 mm 1 m/S 578 mmHg 80%
    05:00 +5°C° 0 mm 1 m/S 579 mmHg 77%
    06:00 +6°C° 0 mm 1 m/S 579 mmHg 75%
    07:00 +6°C° 0 mm 1 m/S 579 mmHg 72%
    08:00 +9°C° 0 mm 1 m/S 581 mmHg 62%
    09:00 +10°C° 0 mm 0 m/S 582 mmHg 52%
    10:00 +13°C° 0 mm 0 m/S 583 mmHg 42%
    11:00 +15°C° 0 mm 1 m/S 583 mmHg 41%
    12:00 +15°C° 0 mm 1 m/S 583 mmHg 39%
    13:00 +16°C° 0 mm 1 m/S 583 mmHg 38%
    14:00 +16°C° 0 mm 1 m/S 583 mmHg 41%
    15:00 +16°C° 0 mm 1 m/S 583 mmHg 43%
    16:00 +15°C° 0 mm 1 m/S 582 mmHg 46%
    17:00 +13°C° 0 mm 1 m/S 581 mmHg 57%
    18:00 +10°C° 0 mm 1 m/S 580 mmHg 69%
    19:00 +8°C° 0 mm 1 m/S 578 mmHg 81%
    20:00 +8°C° 0 mm 1 m/S 578 mmHg 80%
    21:00 +7°C° 0 mm 1 m/S 578 mmHg 80%
    22:00 +6°C° 0 mm 2 m/S 578 mmHg 80%
    23:00 +6°C° 0 mm 2 m/S 578 mmHg 81%

    Morgen, 21 September, Freitag

    Zeit Temperatur Niederschläge Wind Luftdruck Luftfeuchtigkeit
    00:00 +6°C° 0 mm 2 m/S 578 mmHg 82%
    01:00 +6°C° 0 mm 2 m/S 578 mmHg 84%
    02:00 +6°C° 0 mm 2 m/S 578 mmHg 85%
    03:00 +5°C° 0 mm 2 m/S 577 mmHg 86%
    04:00 +5°C° 0 mm 2 m/S 577 mmHg 87%
    05:00 +5°C° 0 mm 2 m/S 577 mmHg 86%
    06:00 +6°C° 0 mm 2 m/S 577 mmHg 86%
    07:00 +6°C° 0 mm 2 m/S 577 mmHg 86%
    08:00 +8°C° 0 mm 2 m/S 578 mmHg 74%
    09:00 +12°C° 0 mm 2 m/S 580 mmHg 63%
    10:00 +14°C° 0 mm 1 m/S 581 mmHg 52%
    11:00 +15°C° 0 mm 1 m/S 581 mmHg 49%
    12:00 +16°C° 0 mm 1 m/S 581 mmHg 46%
    13:00 +16°C° 0 mm 2 m/S 581 mmHg 43%
    14:00 +16°C° 0 mm 2 m/S 581 mmHg 48%
    15:00 +15°C° 0 mm 2 m/S 580 mmHg 52%
    16:00 +14°C° 0 mm 2 m/S 580 mmHg 56%
    17:00 +13°C° 0.3 mm 2 m/S 579 mmHg 67%
    18:00 +11°C° 0.3 mm 1 m/S 579 mmHg 77%
    19:00 +9°C° 0.3 mm 1 m/S 578 mmHg 87%
    20:00 +9°C° 0.3 mm 1 m/S 579 mmHg 89%
    21:00 +8°C° 0.3 mm 1 m/S 579 mmHg 92%
    22:00 +8°C° 0.3 mm 1 m/S 579 mmHg 95%
    23:00 +8°C° 0.3 mm 1 m/S 579 mmHg 95%

    übermorgen, 22 September, Samstag

    Zeit Temperatur Niederschläge Wind Luftdruck Luftfeuchtigkeit
    00:00 +7°C° 0.3 mm 1 m/S 579 mmHg 96%
    01:00 +6°C° 0.3 mm 0 m/S 579 mmHg 96%
    02:00 +7°C° 0.2 mm 1 m/S 579 mmHg 96%
    03:00 +7°C° 0.2 mm 1 m/S 579 mmHg 97%
    04:00 +6°C° 0.2 mm 1 m/S 579 mmHg 97%
    05:00 +6°C° 0.2 mm 1 m/S 579 mmHg 96%
    06:00 +6°C° 0.2 mm 1 m/S 579 mmHg 96%
    07:00 +6°C° 0.2 mm 1 m/S 579 mmHg 96%
    08:00 +7°C° 0.1 mm 1 m/S 579 mmHg 93%
    09:00 +7°C° 0.1 mm 1 m/S 580 mmHg 90%
    10:00 +8°C° 0.1 mm 1 m/S 580 mmHg 87%
    11:00 +9°C° 0.2 mm 1 m/S 580 mmHg 83%
    12:00 +9°C° 0.2 mm 1 m/S 580 mmHg 80%
    13:00 +10°C° 0.2 mm 1 m/S 580 mmHg 76%
    14:00 +9°C° 0.1 mm 2 m/S 580 mmHg 76%
    15:00 +9°C° 0.1 mm 2 m/S 580 mmHg 77%
    16:00 +9°C° 0.1 mm 2 m/S 580 mmHg 77%
    17:00 +8°C° 0.1 mm 2 m/S 580 mmHg 82%
    18:00 +7°C° 0.1 mm 1 m/S 579 mmHg 88%
    19:00 +6°C° 0.1 mm 1 m/S 579 mmHg 93%
    20:00 +6°C° 0 mm 1 m/S 579 mmHg 92%
    21:00 +6°C° 0 mm 1 m/S 579 mmHg 91%
    22:00 +6°C° 0 mm 1 m/S 579 mmHg 91%
    23:00 +6°C° 0.1 mm 1 m/S 579 mmHg 89%

    23 September, Sonntag

    Zeit Temperatur Niederschläge Wind Luftdruck Luftfeuchtigkeit
    00:00 +6°C° 0.1 mm 1 m/S 579 mmHg 87%
    01:00 +7°C° 0.1 mm 1 m/S 579 mmHg 86%
    02:00 +7°C° 0 mm 1 m/S 579 mmHg 85%
    03:00 +7°C° 0 mm 1 m/S 579 mmHg 85%
    04:00 +7°C° 0 mm 1 m/S 579 mmHg 85%
    05:00 +7°C° 0 mm 1 m/S 579 mmHg 84%
    06:00 +7°C° 0 mm 1 m/S 579 mmHg 84%
    07:00 +7°C° 0 mm 1 m/S 579 mmHg 84%
    08:00 +9°C° 0 mm 1 m/S 579 mmHg 76%
    09:00 +10°C° 0 mm 2 m/S 580 mmHg 68%
    10:00 +13°C° 0 mm 2 m/S 581 mmHg 60%
    11:00 +14°C° 0 mm 2 m/S 581 mmHg 57%
    12:00 +16°C° 0 mm 2 m/S 581 mmHg 53%
    13:00 +17°C° 0 mm 3 m/S 581 mmHg 50%
    14:00 +16°C° 0 mm 3 m/S 581 mmHg 54%
    15:00 +16°C° 0 mm 3 m/S 580 mmHg 58%
    16:00 +14°C° 0 mm 3 m/S 579 mmHg 62%
    17:00 +13°C° 0 mm 3 m/S 578 mmHg 69%
    18:00 +11°C° 0 mm 3 m/S 577 mmHg 76%
    19:00 +9°C° 0 mm 3 m/S 576 mmHg 83%
    20:00 +8°C° 0 mm 4 m/S 575 mmHg 84%
    21:00 +8°C° 0 mm 4 m/S 574 mmHg 85%
    22:00 +7°C° 0 mm 4 m/S 574 mmHg 86%
    23:00 +7°C° 2.2 mm 5 m/S 573 mmHg 89%

    24 September, Montag

    Zeit Temperatur Niederschläge Wind Luftdruck Luftfeuchtigkeit
    00:00 +6°C° 2.2 mm 5 m/S 573 mmHg 92%
    01:00 +4°C° 2.2 mm 6 m/S 573 mmHg 96%
    02:00 +2°C° 1.7 mm 6 m/S 573 mmHg 93%
    03:00 +1°C° 1.7 mm 5 m/S 572 mmHg 90%
    04:00 -1°C° 1.7 mm 5 m/S 572 mmHg 87%
    05:00 -2°C° 0.4 mm 5 m/S 573 mmHg 88%
    06:00 -4°C° 0.4 mm 5 m/S 573 mmHg 88%
    07:00 -4°C° 0.4 mm 5 m/S 574 mmHg 89%
    08:00 -4°C° 0.2 mm 5 m/S 574 mmHg 85%
    09:00 -2°C° 0.2 mm 5 m/S 575 mmHg 81%
    10:00 -2°C° 0.2 mm 5 m/S 576 mmHg 77%
    11:00 -1°C° 0.1 mm 5 m/S 577 mmHg 75%
    12:00 -1°C° 0.1 mm 4 m/S 577 mmHg 73%
    13:00 -1°C° 0.1 mm 4 m/S 578 mmHg 71%
    14:00 -1°C° 0.1 mm 4 m/S 578 mmHg 71%
    15:00 -1°C° 0.1 mm 4 m/S 578 mmHg 71%
    16:00 0°C° 0.1 mm 3 m/S 578 mmHg 70%
    17:00 -1°C° 0.1 mm 3 m/S 578 mmHg 75%
    18:00 -2°C° 0.1 mm 3 m/S 578 mmHg 80%
    19:00 -4°C° 0.1 mm 3 m/S 578 mmHg 85%
    20:00 -4°C° 0.2 mm 3 m/S 578 mmHg 86%
    21:00 -4°C° 0.2 mm 2 m/S 579 mmHg 87%
    22:00 -4°C° 0.2 mm 2 m/S 579 mmHg 88%
    23:00 -4°C° 0.1 mm 2 m/S 579 mmHg 89%

    25 September, Dienstag

    Zeit Temperatur Niederschläge Wind Luftdruck Luftfeuchtigkeit
    00:00 -4°C° 0.1 mm 2 m/S 579 mmHg 89%
    01:00 -5°C° 0.1 mm 2 m/S 579 mmHg 89%
    02:00 -5°C° 0 mm 2 m/S 579 mmHg 89%
    03:00 -5°C° 0 mm 2 m/S 579 mmHg 89%
    04:00 -6°C° 0 mm 2 m/S 579 mmHg 88%
    05:00 -6°C° 0 mm 2 m/S 580 mmHg 86%
    06:00 -6°C° 0 mm 2 m/S 580 mmHg 84%
    07:00 -6°C° 0 mm 2 m/S 580 mmHg 83%
    08:00 -4°C° 0 mm 2 m/S 581 mmHg 70%
    09:00 -2°C° 0 mm 2 m/S 582 mmHg 57%
    10:00 +1°C° 0 mm 3 m/S 583 mmHg 44%
    11:00 +1°C° 0 mm 3 m/S 583 mmHg 43%
    12:00 +2°C° 0 mm 3 m/S 584 mmHg 41%
    13:00 +3°C° 0 mm 3 m/S 584 mmHg 39%
    14:00 +3°C° 0 mm 3 m/S 583 mmHg 41%
    15:00 +2°C° 0 mm 3 m/S 583 mmHg 43%
    16:00 +2°C° 0 mm 3 m/S 583 mmHg 45%
    17:00 +1°C° 0 mm 2 m/S 582 mmHg 56%
    18:00 -2°C° 0 mm 2 m/S 581 mmHg 66%
    19:00 -4°C° 0 mm 2 m/S 581 mmHg 76%
    20:00 -4°C° 0 mm 2 m/S 581 mmHg 74%
    21:00 -4°C° 0 mm 2 m/S 581 mmHg 73%
    22:00 -5°C° 0 mm 2 m/S 581 mmHg 71%
    23:00 -2°C° 0 mm 1 m/S 581 mmHg 65%
    Mehr zeigen